Weather History for St. Joseph, MO

Change the Weather History Date:

Tuesday, April 22, 2014

  Actual Average Record
Temperature  
Mean Temperature 56 °F 56 °F  
Max Temperature 70 °F 68 °F 93 °F (1989)
Min Temperature 41 °F 45 °F 25 °F (1986)
Degree Days  
Heating Degree Days 9 10  
Month to date heating degree days 317 279  
Since 1 July heating degree days 6083 5272  
Cooling Degree Days 0 1  
Month to date cooling degree days 6 15  
Year to date cooling degree days 6 17  
Growing Degree Days 6 (Base 50)    
Moisture  
Dew Point 34 °F    
Average Humidity 47    
Maximum Humidity 70    
Minimum Humidity 24    
Precipitation  
Precipitation 0.00 in 0.15 in 1.76 in (1944)
Month to date precipitation 2.32 2.46  
Year to date precipitation 3.55 6.20  
Sea Level Pressure  
Sea Level Pressure 30.09 in    
Wind  
Wind Speed 8 mph (NE)    
Max Wind Speed 15 mph    
Max Gust Speed 20 mph    
Visibility 10 miles    
Events      
T = Trace of Precipitation, MM = Missing Value Source: NWS Daily Summary

Daily Weather History Graph

Daily Weather History Graph

Search for Another Location

Airport:

Trip Planner

Search our weather history database for the weather conditions in past years. The results will help you decide how hot, cold, wet, or windy it might be!

Date:

Astronomy

Apr. 22, 2014 Rise Set
Actual Time 6:31 AM CDT 8:04 PM CDT
Civil Twilight 6:03 AM CDT 8:33 PM CDT
Nautical Twilight 5:29 AM CDT 9:07 PM CDT
Astronomical Twilight 4:53 AM CDT 9:44 PM CDT
Moon 2:20 AM CDT (4/22) 1:08 PM CDT (4/22)
Length of Visible Light 14h 29m
Length of Day
13h 32m
Last Quarter, 46% of the Moon is Illuminated
Apr 22
Last Quarter
Apr 29
New
May 6
First Quarter
May 14
Full
May 21
Last Quarter

Hourly Weather History & Observations

Time (CDT) Temp. Windchill Dew Point Humidity Pressure Visibility Wind Dir Wind Speed Gust Speed Precip Events Conditions
12:53 AM 51.1 °F - 37.0 °F 59% 30.09 in 10.0 mi North 11.5 mph - N/A   Clear
1:53 AM 52.0 °F - 37.9 °F 59% 30.11 in 10.0 mi North 11.5 mph - N/A   Clear
2:53 AM 48.9 °F - 37.0 °F 64% 30.12 in 10.0 mi North 6.9 mph - N/A   Clear
3:53 AM 44.1 °F 39.0 °F 36.0 °F 73% 30.12 in 10.0 mi North 9.2 mph - N/A   Clear
4:53 AM 44.1 °F 38.1 °F 35.1 °F 71% 30.13 in 10.0 mi North 11.5 mph - N/A   Clear
5:53 AM 43.0 °F 36.8 °F 34.0 °F 71% 30.13 in 10.0 mi North 11.5 mph - N/A   Clear
6:53 AM 42.1 °F 36.6 °F 33.1 °F 70% 30.15 in 10.0 mi North 9.2 mph - N/A   Clear
7:53 AM 46.9 °F - 35.1 °F 63% 30.16 in 10.0 mi North 8.1 mph - N/A   Clear
8:53 AM 52.0 °F - 33.1 °F 49% 30.16 in 10.0 mi NNE 10.4 mph - N/A   Clear
9:53 AM 55.9 °F - 30.0 °F 37% 30.17 in 10.0 mi ENE 10.4 mph - N/A   Clear
10:53 AM 59.0 °F - 30.9 °F 35% 30.16 in 10.0 mi NE 15.0 mph - N/A   Clear
11:53 AM 60.1 °F - 30.9 °F 33% 30.16 in 10.0 mi Variable 3.5 mph - N/A   Clear
12:53 PM 64.0 °F - 32.0 °F 30% 30.12 in 10.0 mi ENE 8.1 mph - N/A   Clear
1:53 PM 64.0 °F - 32.0 °F 30% 30.09 in 10.0 mi Variable 3.5 mph - N/A   Clear
2:53 PM 64.9 °F - 30.9 °F 28% 30.08 in 10.0 mi SW 3.5 mph - N/A   Clear
3:53 PM 68.0 °F - 30.9 °F 25% 30.06 in 10.0 mi Variable 3.5 mph - N/A   Clear
4:53 PM 70.0 °F - 33.1 °F 26% 30.03 in 10.0 mi NE 6.9 mph - N/A   Clear
5:53 PM 68.0 °F - 32.0 °F 26% 30.02 in 10.0 mi Variable 5.8 mph - N/A   Clear
6:53 PM 66.0 °F - 33.1 °F 29% 30.01 in 10.0 mi East 6.9 mph - N/A   Clear
7:53 PM 62.1 °F - 34.0 °F 35% 29.99 in 10.0 mi ESE 5.8 mph - N/A   Clear
8:53 PM 60.1 °F - 34.0 °F 38% 29.99 in 10.0 mi East 5.8 mph - N/A   Clear
9:53 PM 60.1 °F - 34.0 °F 38% 30.00 in 10.0 mi ESE 5.8 mph - N/A   Mostly Cloudy
10:53 PM 57.9 °F - 35.1 °F 42% 30.01 in 10.0 mi SE 5.8 mph - N/A   Mostly Cloudy
11:53 PM 57.0 °F - 34.0 °F 42% 30.00 in 10.0 mi ESE 8.1 mph - N/A   Scattered Clouds